Warning: Javascript must be enabled to use all the features on this page!


Page Loading - Please Wait...

Click to hideNews Bulletins

Peak Streamflow for the Nation

USGS 11530500 KLAMATH R NR KLAMATH CA

Del Norte County, California
Hydrologic Unit Code 18010209
Latitude  41°30'40", Longitude 123°58'42" NAD27
Drainage area 12,100  square miles
Output formats
Table
Graph
Tab-separated file
peakfq (watstore) format
Reselect output format
Water
Year
Date Gage
Height
(feet)
Stream-
flow
(cfs)
1862 1861-12 60.00Bd 450,0006,7,Bd
1881 1881-02   360,0006,7,Bd
1890 1890-02 63.00Bd 425,0006,7,Bd
1911 1911-01-20 19.00 66,7006
1912 1912-02-17 28.50 142,0006
1913 1912-11-06 20.10 74,5006
1914 1914-01-22 27.00 130,0006
1915 1915-02-02 33.30 182,0006
1916 1916-02-07 21.50 85,7006
1917 1917-02-22 20.00 73,7006
1918 1917-12-01 18.80 65,3006
1919 1919-01-18 27.40 133,0006
1920 1920-04-17 13.00 27,9006
1921 1920-12-31 27.00 130,0006
1922 1921-11-30 18.00 59,7006
1923 1922-12-28 18.10 60,4006
1924 1924-02-02 12.60 25,8006
1925 1925-02-05 32.40 175,0006
1926 1926-02-04 23.50 102,0006
1927 1927-02   300,0006,Bd
1932 1932-03   96,4006,Bd
1933 1933-03   46,2006,Bd
1934 1934-03   51,1006,Bd
1935 1935-04   60,0006,Bd
1936 1936-01   162,0006,Bd
1937 1937-04   121,0006,Bd
1938 1937-12   218,0006,Bd
1939 1938-12   71,0006,Bd
1940 1940-02   237,0006,Bd
1941 1941-03   124,0006,Bd
1942 1942-02   151,0006,Bd
1943 1943-01   162,0006,Bd
1944 1944-03   32,3006,Bd
1945 1945-02   102,0006,Bd
1946 1945-12   209,0006,Bd
1947 1947-02   73,9006,Bd
1948 1948-01   202,0006,Bd
1949 1949-03   95,0006,Bd
1950 1950-03   92,6006,Bd
1951 1951-02-05 31.60 173,0006
1952 1952-02-02 33.98 195,0006
1953 1953-01-18 43.67 297,0006
1954 1954-01-28 25.53 133,0006
1955 1954-12-31 18.90 74,2006
1956 1955-12-22 49.70 425,0006
1957 1957-02-26 27.75 160,0006
1958 1958-02-25 33.80 236,0006
1959 1959-01-12 28.30 175,0006
1960 1960-02-08 30.08 195,0006
1961 1961-02-11 23.16 123,0006
1962 1961-12-20 18.89 82,0006
1963 1962-12-03 28.38 176,0006
1964 1964-01-20 27.10 162,0006
1965 1964-12-23 55.30 557,0006
1966 1966-01-06 26.14 152,0006
1967 1967-01-29 26.25 170,0006
1968 1968-02-23 27.88 190,0006
1969 1969-01-21 26.87 177,0006
1970 1970-01-24 36.24 331,0006
1971 1971-01-18 36.39 334,0006
1972 1972-03-03 37.89 360,0006
1973 1973-01-17 19.88 97,8006
1974 1974-01-16 41.96 529,0006
1975 1975-03-19 26.30 198,0006
1976 1976-02-28 18.376 76,9006
1977 1977-09-29 10.50 15,2006
1978 1977-12-14   312,0006
1979 1979-01-11 20.16 98,8006
1980 1980-01-14 28.08 234,0006
1981 1981-02-14 18.76 81,4006
1982 1981-12-20 34.20 384,0006
1983 1983-01-27 30.24 282,0006
1984 1983-12-14 24.92 172,0006
1985 1984-11-12 23.57 149,0006
1986 1986-02-18 36.76 459,0006
1987 1987-03-13 19.74 81,3006
1988 1987-12-10 22.34 113,0006
1989 1988-11-23 25.15 154,0006
1990 1990-01-08 23.68 131,0006
1991 1991-03-05 18.28 70,5006
1992 1992-02-22 16.95 59,2006
1993 1993-01-21 25.77 164,0006
1994 1993-12-08 15.52 46,0006
1996 1995-12-30 25.78 165,0002,6
1997 1997-01-01   500,0002,6
1998 1998-03-24 31.11 240,0006
1999 1999-02-28 24.68 141,0006
2000 2000-02-14 24.05 141,0006
2001 2001-03-25 10.361,2 25,5006
2002 2002-01-07 23.40 134,0006
2003 2002-12-28 28.91 181,0006
2004 2004-02-18 32.95 195,0006
2005 2004-12-09 26.17 100,0006
2006 2005-12-31 47.12 342,0006
2007 2006-12-27 26.09 97,4006
2008 2008-01-05 22.95 72,3006
2009 2008-12-29 24.26 82,4006
2010 2010-06-04 22.38 69,4006
2011 2010-12-29 25.82 95,1006
2012 2012-03-31 32.33 156,0006
2013 2012-12-02 30.83 140,0006
2014 2014-03-10 25.51 92,0006
2015 2015-02-07 33.91 172,0006
2016 2016-01-18 36.33 199,0006
2017 2017-02-10 41.64 265,0006
2018 2018-04-07 25.95 97,0006
2019 2019-02-27 32.64 156,0006
?
  Peak Gage-Height Qualification Codes.
?
  Peak Streamflow Qualification Codes.